Regional Weather Roundup
Issued by NWS

Home | Current Version | Previous Version | Graphics & Text | Print | Product List | Glossary On
Versions: 1 2 3 4 5 6 7 8 9 10 11 12 13 14 15 16 17 18 19 20 21 22 23 24 25 26 27 28 29 30 31 32 33 34 35 36 37 38 39 40 41 42 43 44 45 46 47 48 49 50
000
ASUS43 KBIS 170359
RWRND

NORTH DAKOTA REGIONAL WEATHER ROUNDUP
NATIONAL WEATHER SERVICE BISMARCK ND
1100 PM CDT WED APR 16 2014

NOTE: "FAIR" INDICATES FEW OR NO CLOUDS BELOW 12,000 FEET WITH NO
SIGNIFICANT WEATHER AND/OR OBSTRUCTIONS TO VISIBILITY.


NDZ001>003-009>011-017-170500-
NORTHWEST NORTH DAKOTA

CITY           SKY/WX    TMP DP  RH WIND       PRES   REMARKS
WILLISTON        N/A    N/A N/A N/A MISG      30.27S
MINOT          CLOUDY    26  15  63 NE9       30.28S WCI  17
$$

NDZ018>021-031>035-040>046-170500-
SOUTHWEST NORTH DAKOTA

CITY           SKY/WX    TMP DP  RH WIND       PRES   REMARKS
BISMARCK       CLOUDY    30  15  53 NE8       30.26R
GARRISON         N/A     30  17  58 NE9       30.26R
HETTINGER ARPT MOCLDY    26  21  81 E6        30.20R WCI  19
$$

NDZ004>008-012>016-024-026-027-054-170500-
NORTHEAST NORTH DAKOTA

CITY           SKY/WX    TMP DP  RH WIND       PRES   REMARKS
GRAND FORKS    CLEAR     28  21  75 N10       30.25R WCI  19
DEVILS LAKE    CLEAR     25  12  58 NE13      30.30R WCI  13
$$

NDZ022-023-025-028>030-036>039-047>053-170500-
SOUTHEAST NORTH DAKOTA

CITY           SKY/WX    TMP DP  RH WIND       PRES   REMARKS
FARGO          CLEAR     31  19  61 N14       30.22R
$$




USA.gov is the U.S. government's official web portal to all federal, state and local government web resources and services.